Probability
0 0 0 0 0 0 0 0 0 0 0 1 3 6 13 25 39 51 60 66 67 64 59 54 53 53 47 38 35 38 38 35 35 38 40 40 37 29 24 21 18 15 13 12
0 0 0 0 0 0 0 0 0 0 0 1 3 8 16 26 39 52 61 63 61 56 49 44 43 42 37 31 29 28 28 28 28 31 33 33 31 26 20 17 13 10 10 11
0 0 0 0 0 0 0 0 0 0 0 0 2 7 14 24 35 47 55 55 50 42 34 30 29 27 25 22 21 18 17 18 21 24 26 25 25 24 20 15 11 8 6 6
0 0 0 0 0 0 0 0 0 0 0 0 0 3 8 16 26 35 40 39 32 23 18 17 16 15 14 14 14 13 11 12 14 18 20 20 22 24 21 17 14 10 6 4
0 0 0 0 0 0 0 0 0 0 0 0 0 0 2 8 14 20 23 21 15 9 6 6 6 6 6 6 7 8 8 7 8 10 13 15 17 17 17 16 15 12 8 6
0 0 0 0 0 0 0 0 0 0 0 0 0 0 0 2 5 7 8 8 7 4 2 1 1 1 1 1 2 3 4 3 3 4 7 9 9 9 10 11 11 9 7 6
0 0 0 0 0 0 0 0 0 0 0 0 0 0 0 1 2 3 2 3 3 2 1 0 0 0 0 0 0 1 1 1 0 1 3 3 4 5 6 5 5 5 3 2
0 0 0 0 0 0 0 0 0 0 0 0 0 0 0 2 3 4 3 2 1 1 0 0 0 0 0 0 0 0 0 0 0 0 0 0 1 2 2 2 1 1 1 0
0 0 0 0 0 0 0 0 0 0 0 0 0 0 0 2 3 4 2 2 1 0 0 0 0 0 0 0 0 0 0 0 0 0 0 0 0 0 1 1 0 0 0 0
0 0 0 0 0 0 0 0 0 0 0 0 0 0 0 1 2 2 1 1 1 0 0 0 0 0 0 0 0 0 0 0 0 0 0 0 0 0 1 1 0 0 0 0
0 0 0 0 0 0 0 0 0 0 0 0 0 0 0 1 1 1 0 0 0 0 0 0 0 0 0 0 0 0 0 0 0 0 0 0 0 0 0 0 0 0 0 0
0 0 0 0 0 0 0 0 0 0 0 0 0 0 0 0 0 0 0 0 0 0 0 0 0 0 0 0 0 0 0 0 0 0 0 0 0 0 0 0 0 0 0 0
0 0 0 0 0 0 0 0 0 0 0 0 0 0 0 0 0 0 0 0 0 0 0 0 0 0 0 0 0 0 0 0 0 0 0 0 0 0 0 0 0 0 0 0
0 0 0 0 0 0 0 0 0 0 0 0 0 0 0 0 0 0 0 0 0 0 0 0 0 0 0 0 0 0 0 0 0 0 0 0 0 0 0 0 0 0 0 0
0 0 0 0 0 0 0 0 0 0 0 0 0 0 0 0 0 0 0 0 0 0 0 0 0 0 0 0 0 0 0 0 0 0 0 0 0 0 0 0 0 0 0 0
0 0 0 0 0 0 0 0 0 0 0 0 0 0 0 0 0 0 0 0 0 0 0 0 0 0 0 0 0 0 0 0 0 0 0 0 0 0 0 0 0 0 0 0
0 0 0 0 0 0 0 0 0 0 0 0 0 0 0 0 0 0 0 0 0 0 0 0 0 0 0 0 0 0 0 0 0 0 0 0 0 0 0 0 0 0 0 0
0 0 0 0 0 0 0 0 0 0 0 0 0 0 0 0 0 0 0 0 0 0 0 0 0 0 0 0 0 0 0 0 0 0 0 0 0 0 0 0 0 0 0 0
0 0 0 0 0 0 0 0 0 0 0 0 0 0 0 0 0 0 0 0 0 0 0 0 0 0 0 0 0 0 0 0 0 0 0 0 0 0 0 0 0 0 0 0
0 0 0 0 0 0 0 0 0 0 0 0 0 0 0 0 0 0 0 0 0 0 0 0 0 0 0 0 0 0 0 0 0 0 0 0 0 0 0 0 0 0 0 0
0 0 0 0 0 0 0 0 0 0 0 0 0 0 0 0 0 0 0 0 0 0 0 0 0 0 0 0 0 0 0 0 0 0 0 0 0 0 0 0 0 0 0 0
0 0 0 0 0 0 0 0 0 0 0 0 0 0 0 0 0 0 0 0 0 0 0 0 0 0 0 0 0 0 0 0 0 0 0 0 0 0 0 0 0 0 0 0
0 0 0 0 0 0 0 0 0 0 0 0 0 0 0 0 0 0 0 0 0 0 0 0 0 0 0 0 0 0 0 0 0 0 0 0 0 0 0 0 0 0 0 0
0 0 0 0 0 0 0 0 0 0 0 0 0 0 0 0 0 0 0 0 0 0 0 0 0 0 0 0 0 0 0 0 0 0 0 0 0 0 0 0 0 0 0 0
0 0 0 0 0 0 0 0 0 0 0 0 0 0 0 0 0 0 0 0 0 0 0 0 0 0 0 0 0 0 0 0 0 0 0 0 0 0 0 0 0 0 0 0
0 0 0 0 0 0 0 0 0 0 0 0 0 0 0 0 0 0 0 0 0 0 0 0 0 0 0 0 0 0 0 0 0 0 0 0 0 0 0 0 0 0 0 0
Wind_Speed
2 2 6 10 10 10 6 4 5 6 5 5 5 6 8 8 10 9 9 10 10 9 8 9 9 9 10 6 3 4 3 2 2 2 1 1 2 1 1 2 3 4 4 5
3 6 14 13 7 5 2 2 4 5 6 6 6 10 11 14 12 10 10 9 9 8 9 9 8 7 8 4 1 3 3 2 2 2 2 1 2 2 2 1 2 3 4 4
7 8 6 4 4 2 2 1 2 3 5 8 6 7 9 11 14 13 11 9 8 8 9 9 8 8 7 5 5 4 2 1 1 1 1 1 1 1 1 1 1 1 3 4
2 4 6 5 3 1 3 3 2 3 4 3 4 1 3 6 11 11 9 8 7 7 7 8 9 10 9 7 7 6 5 4 3 3 3 3 2 1 1 1 1 1 1 2
5 5 5 4 4 2 2 2 3 2 2 2 3 3 2 4 5 5 6 6 5 6 6 8 8 8 8 7 7 6 6 7 6 6 6 5 3 1 1 2 3 2 3 3
4 3 1 3 4 2 1 6 7 6 6 3 2 3 3 1 1 1 3 4 4 4 4 5 6 6 7 6 6 6 7 7 7 7 7 6 5 5 4 4 3 3 3 3
6 7 5 1 4 7 5 7 5 7 5 4 1 3 4 2 3 3 3 3 3 3 3 3 4 5 5 5 5 5 6 6 6 7 6 6 5 5 4 4 3 3 3 3
1 6 5 2 2 3 1 7 6 3 4 4 1 1 3 2 2 3 4 3 3 3 3 3 3 4 3 3 3 3 4 3 3 4 3 3 3 2 2 3 2 2 2 3
3 5 5 5 5 1 1 1 5 6 1 1 1 1 1 1 0 1 3 3 2 2 2 2 2 3 3 3 2 3 3 1 1 1 1 2 2 2 2 2 2 2 3 3
4 3 4 4 5 5 2 2 5 4 1 2 2 2 3 4 5 3 3 3 3 3 3 3 3 3 3 3 3 3 3 3 2 2 2 2 2 2 2 2 3 4 4 4
3 2 6 5 3 2 4 3 3 2 4 4 2 4 3 6 6 6 5 4 4 3 3 4 4 4 4 4 4 3 4 4 4 4 4 4 4 4 4 4 5 5 4 5
2 5 2 5 5 0 1 1 3 2 2 2 2 3 3 2 3 4 4 3 3 3 4 4 4 4 3 3 4 4 5 5 6 6 5 6 6 5 5 6 6 6 6 6
3 6 4 9 9 7 6 4 1 4 3 2 2 3 1 1 2 2 2 2 2 4 4 3 3 3 3 4 5 5 6 7 7 6 6 7 7 7 7 7 7 7 7 7
5 5 4 3 6 4 4 7 7 6 4 2 0 1 1 0 1 1 2 3 5 5 4 3 3 4 5 6 7 7 7 8 7 7 7 8 8 9 9 8 8 7 7 7
6 3 2 2 1 8 8 8 9 8 3 3 0 2 1 1 1 2 4 6 5 4 3 3 5 6 7 7 8 8 8 8 8 8 8 9 9 9 8 8 8 8 7 8
5 3 4 4 5 10 9 9 7 6 5 3 3 2 1 2 3 4 6 6 3 4 6 7 7 7 8 8 8 8 9 9 8 8 9 9 8 8 8 9 8 8 8 7
2 3 3 4 4 4 6 6 5 4 4 3 2 1 3 4 6 7 6 5 6 8 8 8 8 8 9 9 9 9 10 9 8 9 9 8 8 8 9 9 8 8 8 7
4 3 2 2 6 4 1 1 4 4 3 3 1 3 4 6 7 6 6 6 8 9 9 9 9 9 9 9 9 9 9 9 8 8 9 8 8 8 8 8 8 8 7 7
4 4 3 3 2 1 1 3 3 1 2 1 2 5 6 7 5 5 8 8 9 10 10 10 10 10 9 9 10 9 9 8 8 9 9 9 8 8 8 8 8 8 7 7
5 6 5 3 1 2 3 4 3 1 2 3 3 5 7 6 6 7 8 8 9 10 10 10 9 9 9 10 9 8 8 8 9 9 9 9 8 8 8 9 8 7 7 8
5 5 4 2 1 2 3 4 4 3 7 6 5 6 6 6 7 9 9 9 9 10 10 9 9 8 9 9 8 8 8 9 9 9 9 8 8 8 9 8 7 7 7 6
3 3 2 2 2 4 4 3 2 5 5 5 5 5 6 8 9 9 9 9 10 9 9 9 8 9 9 9 9 10 11 11 10 9 9 9 8 8 8 7 6 6 6 6
3 6 5 6 5 5 1 2 3 4 4 5 5 7 7 7 8 8 8 8 8 9 9 9 9 11 10 10 9 11 11 10 9 9 9 9 9 7 7 6 7 6 5 5
2 3 4 1 1 1 1 1 2 2 3 5 5 6 6 7 8 9 8 8 9 9 10 9 10 12 12 11 11 11 11 10 9 10 10 9 8 7 6 5 5 5 5 5
2 2 3 0 2 2 3 3 4 4 5 5 6 6 6 7 8 7 8 9 9 9 9 9 11 12 14 13 12 12 11 9 10 9 9 8 7 6 6 6 5 6 6 6
1 5 5 5 5 3 5 5 3 4 5 6 6 7 7 6 7 8 8 8 9 11 11 11 12 13 14 13 13 12 10 9 9 8 8 6 5 5 5 5 6 8 9 10
Wind_Direction
313 110 243 245 220 217 239 271 296 297 318 42 49 55 44 57 78 91 97 99 92 85 78 73 68 71 77 67 60 157 162 175 190 219 227 192 240 249 240 221 185 171 167 157
343 258 241 243 254 246 263 344 337 327 355 36 48 59 48 47 52 63 78 83 89 86 72 70 72 73 72 78 76 122 130 180 197 191 238 201 199 220 227 223 172 168 163 163
220 248 266 280 308 347 349 30 344 330 1 31 59 44 43 52 57 58 55 57 60 72 77 72 70 68 65 54 52 62 70 69 68 214 213 213 71 46 17 335 259 211 184 178
267 321 347 340 325 36 313 316 13 20 46 351 45 52 10 49 53 49 44 37 38 38 53 60 62 61 56 49 48 53 45 35 18 23 52 68 75 83 278 276 307 289 247 226
327 339 349 333 309 356 273 21 42 28 86 35 20 97 320 28 46 40 49 53 44 46 51 62 65 67 62 56 57 54 55 46 35 39 39 47 45 28 346 13 13 341 318 301
295 305 277 265 300 333 46 38 27 38 56 10 312 118 296 329 207 97 72 79 75 64 65 75 76 75 67 61 60 55 50 41 32 37 36 37 35 20 18 17 7 347 336 337
332 327 321 318 359 349 46 65 21 358 2 270 339 113 237 217 170 137 110 91 106 97 91 98 95 88 82 74 69 66 63 45 34 39 34 30 32 29 22 6 5 358 350 345
333 309 297 315 210 236 288 129 151 212 241 275 16 196 244 167 133 122 122 116 114 128 142 132 123 119 117 112 100 89 82 64 40 42 29 19 23 24 4 357 356 349 333 317
183 260 289 294 291 176 325 250 178 154 259 34 266 288 328 137 208 116 121 132 151 172 161 154 150 139 145 148 148 138 123 105 50 31 9 354 353 349 333 329 330 317 305 307
163 248 304 320 20 16 126 142 69 77 68 316 296 238 236 202 204 189 165 167 185 193 183 177 175 177 177 172 170 160 161 182 212 224 242 244 258 268 278 294 299 294 292 296
98 90 325 1 11 314 1 29 85 110 161 162 257 268 264 202 194 185 188 196 202 196 197 199 195 190 187 185 184 192 204 215 230 236 239 246 251 253 256 261 266 270 274 284
55 101 337 300 294 276 52 292 144 144 279 161 159 269 322 174 176 177 193 210 216 217 225 225 222 218 211 209 217 225 233 236 239 239 240 244 248 251 253 255 259 261 265 268
72 82 27 348 344 354 7 349 16 120 90 65 86 277 255 176 168 179 187 231 261 270 273 273 275 269 249 243 246 246 246 247 248 244 242 245 248 248 248 251 254 256 257 261
95 85 135 210 261 302 7 30 42 78 79 50 58 221 212 235 101 4 345 317 303 305 314 311 294 269 257 254 253 252 252 249 247 242 239 240 243 243 246 249 251 252 252 254
80 60 329 286 51 75 64 54 58 70 87 115 315 101 38 17 2 337 323 318 324 334 327 293 270 260 261 262 260 254 251 250 246 241 238 240 241 241 243 246 247 248 248 253
72 61 11 352 87 93 66 43 46 55 51 71 94 82 340 333 347 331 323 320 310 292 286 279 273 267 262 259 257 253 251 250 243 239 240 242 243 242 242 243 242 244 247 249
72 72 43 320 315 75 32 13 36 44 29 75 102 284 310 327 323 308 301 289 277 279 279 277 272 261 258 256 253 253 251 250 246 242 244 243 240 240 242 246 244 238 242 242
129 97 104 350 22 42 227 10 58 91 87 78 95 295 293 285 281 278 279 275 283 286 284 278 270 266 262 260 261 259 259 255 250 248 248 245 242 245 248 246 243 242 239 236
128 125 84 71 30 149 334 0 0 324 224 46 327 309 302 296 310 295 279 278 280 281 279 275 272 271 272 272 272 273 270 264 258 253 249 246 243 246 246 244 243 243 239 238
50 75 86 65 33 254 263 306 308 22 273 283 328 311 303 320 321 286 281 284 285 284 284 284 285 286 286 285 284 282 279 278 274 269 262 256 252 249 246 244 244 244 236 237
25 33 60 64 341 267 278 308 35 49 275 287 290 291 294 287 264 275 292 293 291 294 296 298 300 299 293 293 294 288 284 277 273 274 268 262 255 253 251 248 246 242 239 241
120 97 69 79 19 278 304 29 75 243 256 279 286 289 288 281 283 292 300 302 306 308 306 306 304 299 294 293 292 288 283 280 278 277 273 268 262 260 267 251 249 243 238 241
142 174 176 175 207 230 233 148 211 222 269 285 288 294 295 299 300 302 304 307 307 305 305 304 302 302 301 298 294 291 288 288 287 284 278 272 268 260 256 250 250 251 242 237
266 148 106 96 200 192 134 35 323 310 301 298 300 304 310 307 306 310 309 308 308 305 304 302 304 305 304 300 295 288 287 287 285 283 280 274 268 263 257 251 246 243 240 237
216 109 91 100 294 325 331 327 315 324 328 322 317 313 314 316 314 311 310 309 307 305 303 305 308 307 305 303 299 296 293 288 285 285 282 275 264 260 260 254 246 240 235 228
210 148 152 217 232 215 264 281 314 336 326 318 320 322 321 322 315 316 313 308 308 310 313 313 310 307 306 305 302 300 294 286 284 285 282 274 264 260 257 258 269 256 247 251